Bellingham, WA
on Monday, January 7, 2013

Monday
Previous Day Next Day
Daily Summary
 ActualAverageRecord
Temperature
Mean Temperature °F 39°F  
Max Temperature 50°F 45°F 62°F (1986)
Min Temperature 39°F 32°F 13°F (1979)
Degree Days
Heating Degree Days 20 26  
Month to date heating degree days 188  
Cooling Degree Days 0 0  
Month to date cooling degree days 0  
Year to date cooling degree days 0  
Moisture
Dew Point 42°F   
Average Humidity 86    
Maximum Humidity 97    
Minimum Humidity 74    
Precipitation
Precipitation 0.21 in 0.15 in 1.47 in (2009)
Month to date precipitation 1.00  
Year to date precipitation 1.00  
Wind
Wind Speed 8 mph   
Max Wind Speed 16 mph   
Max Gust Speed 25 mph   
Visibility 9 miles   
Events Rain   

Key: T is trace of precipitation, MM is missing value
Source: NWS Daily Summary
Time(PST)TemperatureDew PointHumidity Pressure Visibility Wind DirectionWind SpeedGust SpeedPrecipitationEvents Conditions
12:53 AM 42.1°F 37.9°F 85% 29.95 in 10.0 miles ESE 5.8 mph - 0.01 in Rain Light Rain
1:53 AM 43.0°F 37.9°F 82% 29.95 in 10.0 miles ESE 6.9 mph - 0.00 in Rain Light Rain
2:53 AM 42.1°F 39.0°F 89% 29.93 in 8.0 miles Variable 4.6 mph - 0.05 in Rain Light Rain
3:53 AM 39.9°F 39.0°F 97% 29.89 in 8.0 miles NE 5.8 mph - 0.03 in Rain Light Rain
4:53 AM 43.0°F 39.0°F 86% 29.85 in 8.0 miles SE 9.2 mph 18.4 mph 0.02 in Rain Light Rain
5:53 AM 44.1°F 39.0°F 82% 29.83 in 7.0 miles SE 12.7 mph 21.9 mph 0.03 in Rain Light Rain
6:53 AM 44.1°F 41.0°F 89% 29.82 in 5.0 miles SE 6.9 mph - 0.04 in Rain Light Rain
7:53 AM 45.0°F 42.1°F 90% 29.81 in 7.0 miles SSE 9.2 mph - 0.01 in Rain Light Rain
8:53 AM 46.0°F 42.1°F 86% 29.81 in 10.0 miles SE 12.7 mph - 0.02 in Rain Light Rain
9:53 AM 46.0°F 43.0°F 89% 29.83 in 9.0 miles SSE 9.2 mph - 0.00 in Rain Light Rain
10:39 AM 48.2°F 44.6°F 87% 29.81 in 9.0 miles SSE 16.1 mph 25.3 mph 0.00 in   Overcast
10:53 AM 48.0°F 45.0°F 89% 29.83 in 10.0 miles SSE 16.1 mph 21.9 mph 0.00 in   Overcast
11:53 AM 48.0°F 45.0°F 89% 29.84 in 10.0 miles South 16.1 mph 23.0 mph N/A   Overcast
12:53 PM 50.0°F 45.0°F 83% 29.88 in 10.0 miles South 9.2 mph - N/A   Overcast
1:07 PM 50.0°F 44.6°F 82% 29.85 in 10.0 miles South 11.5 mph 19.6 mph N/A   Overcast
1:53 PM 50.0°F 44.1°F 80% 29.88 in 10.0 miles Variable 6.9 mph - N/A   Scattered Clouds
2:53 PM 50.0°F 44.6°F 82% 29.90 in 10.0 miles Variable 5.8 mph - N/A   Clear
3:53 PM 50.0°F 42.1°F 74% 29.96 in 10.0 miles Variable 5.8 mph - N/A   Clear
4:53 PM 46.9°F 43.0°F 86% 29.99 in 10.0 miles Variable 4.6 mph - N/A   Mostly Cloudy
5:32 PM 44.6°F 42.8°F 93% 29.99 in 10.0 miles Variable 3.5 mph - N/A   Mostly Cloudy
5:53 PM 45.0°F 41.0°F 86% 30.04 in 10.0 miles Calm Calm - N/A   Overcast
6:53 PM 44.1°F 42.1°F 93% 30.06 in 10.0 miles South 5.8 mph - N/A   Overcast
7:43 PM 44.6°F 41.0°F 87% 30.05 in 10.0 miles South 3.5 mph - N/A   Overcast
7:53 PM 44.1°F 41.0°F 89% 30.08 in 10.0 miles SSE 5.8 mph - N/A   Overcast
8:53 PM 44.1°F 41.0°F 89% 30.10 in 10.0 miles South 3.5 mph - N/A   Mostly Cloudy
9:53 PM 43.0°F 39.9°F 89% 30.12 in 10.0 miles South 4.6 mph - N/A   Scattered Clouds
10:53 PM 45.0°F 41.0°F 86% 30.14 in 10.0 miles South 6.9 mph - N/A   Partly Cloudy
11:53 PM 44.1°F 39.0°F 82% 30.15 in 10.0 miles South 3.5 mph - N/A   Overcast
Moon Phase
Jan. 07 Jan. 11 Jan. 18 Jan. 26 Feb. 03
Sunrise:08:02 AM (PST) Moon Rise:03:26 AM (PST)1/7
Sunset:04:31 PM (PST) Moon Set:12:50 PM (PST)1/7

Copyright © 2014 The Weather Underground, Inc.